Tracking 29892 objects as of 21-Nov-2024
HD Live streaming from Space Station
objects crossing your sky now

STARLINK-5968

Track STARLINK-5968 now!
10-day predictions
STARLINK-5968 is classified as:


NORAD ID: 56010
Int'l Code: 2023-042AA
Perigee: 565.1 km
Apogee: 567.3 km
Inclination: 43.0 °
Period: 95.8 minutes
Semi major axis: 6937 km
RCS: Unknown
Launch date: March 24, 2022
Source: United States (US)
Launch site: AIR FORCE EASTERN TEST RANGE (AFETR)
Your satellite tracking list
Your tracking list is empty




NASA's NSSDC Master Catalog

Two Line Element Set (TLE):
1 56010U 23042AA  24325.89024998  .00000033  00000-0  17512-4 0  9994
2 56010  43.0037 110.1710 0001572 261.2430  98.8234 15.02536796 91643
Source of the keplerian elements: AFSPC